Location: Carri�res
(48.9069°N, 2.1792°E)
Time: 09:00:23
(UTC+00:00)

X-37B - Visible Passes

Search period start: 17 April 2021 00:00
Search period end: 27 April 2021 00:00
Orbit: 380 x 394 km, 45.0° (Epoch: 07 April)

Date Brightness Start Highest point End Pass type
(mag) Time Alt. Az. Time Alt. Az. Time Alt. Az.
17 Apr 2.0 04:12:33 10° SW 04:15:19 27° SSE 04:18:05 10° ESE visible
18 Apr 2.3 03:16:28 19° S 03:17:08 20° SSE 03:19:35 10° ESE visible
19 Apr 3.4 02:20:32 11° ESE 02:20:32 11° ESE 02:20:48 10° ESE visible
19 Apr 1.6 03:52:48 15° SW 03:55:04 34° S 03:58:00 10° ESE visible
20 Apr 1.8 02:56:51 28° SSE 02:56:51 28° SSE 02:59:37 10° ESE visible
21 Apr 3.5 02:00:54 11° ESE 02:00:54 11° ESE 02:01:07 10° ESE visible
21 Apr 1.3 03:33:10 21° SW 03:34:50 39° S 03:37:51 10° ESE visible
22 Apr 1.8 02:37:13 31° SE 02:37:13 31° SE 02:39:32 10° ESE visible
22 Apr 1.3 04:09:54 10° WSW 04:12:55 38° S 04:15:54 10° ESE visible
23 Apr 1.1 03:13:35 30° SW 03:14:38 41° S 03:17:40 10° ESE visible
24 Apr 2.3 02:17:43 25° ESE 02:17:43 25° ESE 02:19:23 10° ESE visible
24 Apr 1.5 03:50:01 12° WSW 03:52:40 32° SSW 03:55:33 10° SE visible
25 Apr 1.1 02:54:14 37° SSW 02:54:25 38° S 02:57:25 10° ESE visible
26 Apr 3.1 01:58:36 14° ESE 01:58:36 14° ESE 01:59:11 10° ESE visible
26 Apr 1.8 03:30:54 17° WSW 03:32:24 24° SSW 03:35:04 10° SE visible
